Location: Knowlton
(51.2333°N, 1.2667°E)
Time: 04:49:17
(UTC+00:00)

MOS 1 - Pass Details

Date: 18 April 2021
Orbit: 879 x 891 km, 99.1° (Epoch: 06 May)

Event Time Altitude Azimuth Distance (km) Brightness Sun altitude
Rises 19:38:57 0° 158° (SSE) 3,465 6.9 -6.9°
Reaches altitude 10° 19:41:19 10° 158° (SSE) 2,531 6.2 -7.3°
Maximum altitude 19:46:57 81° 72° (ENE) 897 4.3 -8.0°
Drops below altitude 10° 19:52:38 10° 346° (NNW) 2,551 7.4 -8.8°
Sets 19:55:02 0° 345° (NNW) 3,495 8.2 -9.1°
